TRA33P EHAM-EDDH

Flight info

Callsign TRA33P
Flight time N/A
Altitude 33000
Route ANDIK M105 RIBSO RIBSO7A
Aircraft A21N/M-SDE3FGHIRWY/LB1

Departure

Time 2026-04-29 17:16
Airport Amsterdam Airport Schiphol (EHAM)

Arrival

Time N/A
Airport Hamburg Helmut Schmidt Airport (EDDH)
Time Latitude Longitude Altitude Speed Heading
2026-04-29 16:33 52.30477 4.76296 5 ft 0 kts 239°
2026-04-29 16:36 52.30445 4.76330 4 ft 0 kts 239°
2026-04-29 16:45 52.30446 4.76334 4 ft 3 kts 239°
2026-04-29 16:45 52.30459 4.76370 4 ft 3 kts 239°
2026-04-29 16:45 52.30473 4.76408 4 ft 3 kts 239°
2026-04-29 16:46 52.30487 4.76445 5 ft 3 kts 239°
2026-04-29 16:46 52.30502 4.76477 5 ft 3 kts 214°
2026-04-29 16:46 52.30513 4.76478 6 ft 1 kts 174°
2026-04-29 16:46 52.30513 4.76476 5 ft 0 kts 166°
2026-04-29 16:47 52.30500 4.76481 5 ft 0 kts 167°
2026-04-29 16:52 52.30511 4.76476 6 ft 3 kts 166°
2026-04-29 16:52 52.30535 4.76461 7 ft 3 kts 158°
2026-04-29 16:52 52.30545 4.76425 7 ft 3 kts 97°
2026-04-29 16:52 52.30545 4.76419 6 ft 0 kts 90°
2026-04-29 16:55 52.30545 4.76421 6 ft 0 kts 89°
2026-04-29 16:55 52.30445 4.76330 4 ft 0 kts 239°
2026-04-29 17:02 52.30446 4.76333 4 ft 3 kts 239°
2026-04-29 17:02 52.30459 4.76370 4 ft 3 kts 239°
2026-04-29 17:02 52.30477 4.76394 4 ft 3 kts 194°
2026-04-29 17:03 52.30500 4.76386 5 ft 3 kts 145°
2026-04-29 17:03 52.30510 4.76367 5 ft 0 kts 116°
2026-04-29 17:04 52.30507 4.76376 5 ft 6 kts 117°
2026-04-29 17:04 52.30488 4.76431 5 ft 0 kts 118°
2026-04-29 17:04 52.30486 4.76438 5 ft 1 kts 122°
2026-04-29 17:05 52.30470 4.76462 4 ft 4 kts 165°
2026-04-29 17:05 52.30455 4.76474 3 ft 5 kts 147°
2026-04-29 17:05 52.30450 4.76480 3 ft 5 kts 143°
2026-04-29 17:05 52.30430 4.76511 2 ft 0 kts 139°
2026-04-29 17:08 52.30429 4.76512 2 ft 1 kts 139°
2026-04-29 17:08 52.30392 4.76554 1 ft 9 kts 148°
2026-04-29 17:08 52.30323 4.76579 -1 ft 11 kts 212°
2026-04-29 17:08 52.30281 4.76494 0 ft 5 kts 239°
2026-04-29 17:09 52.30257 4.76428 0 ft 7 kts 239°
2026-04-29 17:09 52.30220 4.76329 0 ft 12 kts 238°
2026-04-29 17:09 52.30170 4.76197 0 ft 14 kts 239°
2026-04-29 17:09 52.30116 4.76054 1 ft 17 kts 238°
2026-04-29 17:10 52.30050 4.75882 0 ft 18 kts 238°
2026-04-29 17:10 52.29983 4.75707 -1 ft 18 kts 238°
2026-04-29 17:10 52.29915 4.75532 0 ft 17 kts 237°
2026-04-29 17:10 52.29850 4.75362 0 ft 17 kts 241°
2026-04-29 17:11 52.29850 4.75182 1 ft 15 kts 304°
2026-04-29 17:11 52.29916 4.75053 2 ft 14 kts 312°
2026-04-29 17:11 52.29989 4.74921 1 ft 17 kts 311°
2026-04-29 17:11 52.30077 4.74758 0 ft 20 kts 311°
2026-04-29 17:12 52.30179 4.74570 -5 ft 23 kts 310°
2026-04-29 17:12 52.30286 4.74371 -9 ft 23 kts 312°
2026-04-29 17:12 52.30394 4.74202 -11 ft 19 kts 339°
2026-04-29 17:12 52.30478 4.74191 -10 ft 17 kts
2026-04-29 17:13 52.30634 4.74209 -10 ft 16 kts
2026-04-29 17:13 52.30745 4.74221 -9 ft 15 kts
2026-04-29 17:13 52.30853 4.74228 -7 ft 17 kts
2026-04-29 17:13 52.30984 4.74242 -4 ft 18 kts
2026-04-29 17:14 52.31108 4.74255 -4 ft 17 kts
2026-04-29 17:14 52.31233 4.74266 -4 ft 17 kts
2026-04-29 17:14 52.31354 4.74277 -4 ft 17 kts
2026-04-29 17:14 52.31461 4.74334 -6 ft 17 kts 55°
2026-04-29 17:15 52.31480 4.74502 -6 ft 14 kts 86°
2026-04-29 17:15 52.31513 4.74642 -7 ft 13 kts 34°
2026-04-29 17:15 52.31606 4.74660 -7 ft 18 kts 12°
2026-04-29 17:15 52.31674 4.74972 -7 ft 62 kts 86°
2026-04-29 17:16 52.31719 4.76077 -8 ft 132 kts 90°
2026-04-29 17:16 52.31772 4.77832 189 ft 170 kts 83°
2026-04-29 17:16 52.31852 4.79808 803 ft 185 kts 86°
2026-04-29 17:16 52.31982 4.81949 1678 ft 193 kts 85°
2026-04-29 17:17 52.32100 4.84104 2587 ft 197 kts 85°
2026-04-29 17:17 52.32226 4.86424 3200 ft 215 kts 86°
2026-04-29 17:17 52.32438 4.88926 3829 ft 233 kts 76°
2026-04-29 17:17 52.33076 4.91372 4687 ft 241 kts 62°
2026-04-29 17:18 52.34021 4.93658 5454 ft 245 kts 58°
2026-04-29 17:18 52.35004 4.95911 6015 ft 247 kts 57°
2026-04-29 17:18 52.36007 4.98193 6330 ft 248 kts 57°
2026-04-29 17:18 52.37024 5.00511 6624 ft 254 kts 57°
2026-04-29 17:19 52.38048 5.02853 7509 ft 257 kts 56°
2026-04-29 17:19 52.39068 5.05191 8471 ft 256 kts 56°
2026-04-29 17:19 52.40097 5.07556 9319 ft 260 kts 56°
2026-04-29 17:19 52.41151 5.09977 10128 ft 264 kts 55°
2026-04-29 17:20 52.42395 5.12194 10840 ft 271 kts 41°
2026-04-29 17:20 52.44054 5.13798 11372 ft 291 kts 25°
2026-04-29 17:20 52.46060 5.14799 11773 ft 311 kts 18°
2026-04-29 17:20 52.48214 5.15693 12265 ft 326 kts 14°
2026-04-29 17:21 52.48723 5.15850 12411 ft 329 kts 13°
2026-04-29 17:21 52.50138 5.16294 12698 ft 336 kts 16°
2026-04-29 17:21 52.52447 5.17309 13090 ft 350 kts 19°
2026-04-29 17:22 52.54814 5.18436 13740 ft 357 kts 19°